[[{"header":{"parameterUnit":"m.s-1","parameterCategory":2,"la1":30.2992,"la2":30.254,"lo1":-89.0895,"lo2":-89.0443,"dy":0.0025,"dx":0.0025,"nx":19,"ny":19,"refTime":"2026-03-10T03:00:00:Z","depth":"0","parameterNumber":2,"parameterNumberName":"U-component_of_CURRENTS"},"data":[0,0,0,-0.1894,-0.1895,-0.1885,-0.1885,-0.1794,-0.1794,0,0,0,0,0,0,0,0,0,0,0,-0.1882,-0.1882,-0.1894,-0.1895,-0.1885,-0.1885,-0.1795,-0.1794,0,0,0,0,0,0,0,0,0,0,0,-0.1882,-0.1882,-0.1882,-0.1895,-0.1885,-0.1885,-0.1795,-0.1818,0,0,0,0,0,0,0,0,0,0,-0.1835,-0.1839,-0.1882,-0.1882,-0.1895,-0.1885,-0.1885,-0.182,-0.1816,-0.1781,0,-0.178,0,-0.1796,-0.1787,-0.1787,0,0,0,-0.1879,-0.1842,-0.1846,-0.1882,-0.1895,-0.1885,-0.1885,-0.1818,-0.1814,-0.1776,-0.1779,-0.1777,-0.1795,-0.1786,-0.1786,-0.1672,-0.1672,0,0,-0.188,-0.1871,-0.1849,-0.1844,-0.1891,-0.1886,-0.1885,-0.1817,-0.1806,-0.1779,-0.1775,-0.1793,-0.1786,-0.1785,-0.1673,-0.1672,0,0,0,-0.1892,-0.1872,-0.1878,-0.1846,-0.1858,-0.1886,-0.1885,-0.1809,-0.1813,-0.1774,-0.1792,-0.1785,-0.1784,-0.1673,-0.1672,-0.1669,0,0,0,-0.1891,-0.188,-0.1879,-0.1872,-0.186,-0.1845,-0.1878,-0.1817,-0.1811,-0.1792,-0.1785,-0.1783,-0.1674,-0.1673,-0.1671,-0.1676,0,0,0,-0.1883,-0.1879,-0.188,-0.1872,-0.1878,-0.1847,-0.1846,-0.1816,-0.1822,-0.1787,-0.1783,-0.1674,-0.1673,-0.1672,-0.1677,-0.1614,0,0,0,-0.1872,-0.1843,-0.1879,-0.1853,-0.1878,-0.1856,-0.1847,-0.1828,-0.18,-0.1785,-0.1674,-0.1672,-0.1672,-0.1678,-0.1616,-0.1446,-0.1424,0,0,-0.1826,-0.1837,-0.1823,-0.1856,-0.1828,-0.1856,-0.1807,-0.1777,-0.1764,-0.1689,-0.1687,-0.167,-0.1677,-0.1614,-0.1374,-0.1354,0,0,0,-0.1803,-0.1785,-0.1786,-0.1782,-0.1791,-0.1785,-0.1766,-0.1752,-0.1702,-0.1745,-0.1645,-0.1649,-0.161,-0.151,-0.1494,-0.1396,-0.1667,-0.1667,-0.1667,-0.1689,-0.1716,-0.1696,-0.1718,-0.1714,-0.172,-0.1706,-0.1676,-0.1667,-0.1645,-0.1629,-0.1556,-0.1449,-0.1435,-0.1337,-0.1604,-0.1604,-0.1604,-0.1604,-0.1615,-0.161,-0.1644,-0.1639,-0.1659,-0.1632,-0.1626,-0.1628,-0.1569,-0.1592,-0.1552,-0.149,-0.1417,-0.1319,-0.1603,-0.1603,-0.1603,-0.1603,-0.1603,-0.1548,-0.1555,-0.1569,-0.1583,-0.1585,-0.1603,-0.1573,-0.1585,-0.1558,-0.1539,-0.1386,-0.1384,-0.1311,-0.1502,-0.1501,-0.1501,-0.1501,-0.1501,-0.15,-0.1485,-0.1503,-0.1506,-0.1532,-0.1546,-0.1555,-0.1548,-0.1499,-0.1398,-0.1359,-0.1357,-0.1249,-0.1524,-0.1544,-0.1496,-0.1497,-0.1498,-0.1498,-0.1498,-0.1415,-0.1438,-0.1437,-0.1452,-0.1469,-0.1404,-0.1433,-0.1256,-0.1206,-0.1106,-0.0999,-0.124,-0.1216,-0.1227,-0.1238,-0.1114,-0.1114,-0.1114,-0.1114,-0.137,-0.1381,-0.1368,-0.1364,-0.1351,-0.1323,-0.1108,-0.0982,-0.0837,-0.0743,-0.079,-0.077,-0.079,-0.0743,-0.0765,-0.0767,-0.0527,-0.0526,-0.0526,-0.1335,-0.134,-0.13,-0.1292,-0.1279,-0.1174,-0.0916,-0.0667,-0.0496,-0.0501,-0.0689,-0.0713,-0.0692,-0.0731,-0.0669,-0.0707,-0.0717,0,0]},{"header":{"parameterUnit":"m.s-1","parameterCategory":2,"la1":30.2992,"la2":30.254,"lo1":-89.0895,"lo2":-89.0443,"dy":0.0025,"dx":0.0025,"nx":19,"ny":19,"refTime":"2026-03-10T03:00:00:Z","depth":"0","parameterNumber":3,"parameterNumberName":"V-component_of_CURRENTS"},"data":[0,0,0,-0.0282,-0.0281,-0.0239,-0.0239,-0.0149,-0.0148,0,0,0,0,0,0,0,0,0,0,0,-0.0296,-0.0296,-0.0282,-0.0281,-0.0239,-0.0239,-0.0149,-0.0148,0,0,0,0,0,0,0,0,0,0,0,-0.0296,-0.0296,-0.0296,-0.0281,-0.0239,-0.0239,-0.0149,-0.0187,0,0,0,0,0,0,0,0,0,0,-0.0232,-0.0254,-0.0296,-0.0296,-0.0281,-0.0239,-0.0239,-0.019,-0.0185,-0.0161,0,-0.0162,0,-0.0157,-0.0142,-0.0142,0,0,0,-0.0271,-0.0258,-0.0249,-0.0296,-0.0281,-0.0239,-0.0255,-0.0187,-0.0182,-0.0155,-0.0161,-0.0158,-0.0155,-0.0142,-0.0141,-0.0063,-0.0063,0,0,-0.0273,-0.0283,-0.0252,-0.0246,-0.0279,-0.0257,-0.0254,-0.0184,-0.0181,-0.0161,-0.0156,-0.0154,-0.0141,-0.014,-0.0063,-0.0063,0,0,0,-0.0287,-0.0284,-0.0277,-0.0249,-0.0246,-0.0256,-0.0253,-0.0183,-0.0182,-0.0155,-0.0153,-0.0141,-0.0139,-0.0064,-0.0063,-0.0098,0,0,0,-0.0288,-0.0293,-0.0278,-0.0283,-0.0248,-0.0219,-0.0253,-0.0187,-0.0179,-0.0153,-0.014,-0.0139,-0.0064,-0.0064,-0.0098,-0.0097,0,0,0,-0.0297,-0.0294,-0.0293,-0.0283,-0.027,-0.0221,-0.0215,-0.0185,-0.0178,-0.0142,-0.0138,-0.0064,-0.0064,-0.0097,-0.0096,-0.0013,0,0,0,-0.0302,-0.0315,-0.0293,-0.0301,-0.0271,-0.0247,-0.0215,-0.0192,-0.0165,-0.014,-0.0064,-0.0063,-0.0097,-0.0096,-0.0014,0.0045,0.0055,0,0,-0.0324,-0.0318,-0.0322,-0.0302,-0.0293,-0.0252,-0.0227,-0.0182,-0.0146,-0.0083,-0.0081,-0.0098,-0.0096,-0.0014,0.0072,0.0081,0,0,0,-0.0333,-0.0336,-0.0329,-0.0318,-0.029,-0.0251,-0.0208,-0.0176,-0.0123,-0.0129,-0.0078,-0.0076,-0.0022,0.0011,0.0019,0.0063,-0.0061,-0.0061,-0.0061,-0.0371,-0.0356,-0.0357,-0.0332,-0.0308,-0.0248,-0.0205,-0.0148,-0.0128,-0.0107,-0.0091,-0.0033,-0.0,0.0007,0.005,-0.0083,-0.0083,-0.0083,-0.0083,-0.0406,-0.0408,-0.0375,-0.0374,-0.0322,-0.0292,-0.0198,-0.0169,-0.0073,-0.0091,-0.0037,-0.0012,0.0013,0.0056,-0.0085,-0.0085,-0.0085,-0.0084,-0.0084,-0.0434,-0.0433,-0.0429,-0.0416,-0.0376,-0.0315,-0.0222,-0.0165,-0.0088,-0.0049,0.0055,0.0056,0.009,-0.0006,-0.0006,-0.0006,-0.0005,-0.0005,-0.0005,-0.0469,-0.0462,-0.0469,-0.0453,-0.0429,-0.0361,-0.0231,-0.0135,-0.0001,0.005,0.0052,0.0122,-0.0008,-0.0016,0.0001,-0.0,-0.0001,-0.0002,-0.0002,-0.0506,-0.0509,-0.0512,-0.05,-0.0423,-0.0305,-0.0212,0.001,0.0116,0.0202,0.0245,0.0133,0.0171,0.0166,0.0163,0.0226,0.0226,0.0226,0.0226,-0.0534,-0.0537,-0.0521,-0.0479,-0.0395,-0.0265,-0.0031,0.0142,0.0304,0.0371,0.0362,0.0331,0.032,0.0364,0.0354,0.0355,0.0465,0.0465,0.0466,-0.0556,-0.0547,-0.0523,-0.0472,-0.0367,-0.0176,0.0064,0.0301,0.0475,0.0477,0.0412,0.0402,0.0353,0.0332,0.0396,0.0378,0.0377,0,0]}],[{"header":{"parameterUnit":"m.s-1","parameterCategory":2,"la1":30.2992,"la2":30.254,"lo1":-89.0895,"lo2":-89.0443,"dy":0.0025,"dx":0.0025,"nx":19,"ny":19,"refTime":"2026-03-10T03:00:00:Z","depth":"2","parameterNumber":2,"parameterNumberName":"U-component_of_CURRENTS"},"data":[0,0,0,-0.1439,-0.1439,-0.1474,-0.1474,-0.1454,-0.1454,0,0,0,0,0,0,0,0,0,0,0,-0.1427,-0.1427,-0.1439,-0.1439,-0.1474,-0.1474,-0.1454,-0.1454,0,0,0,0,0,0,0,0,0,0,0,-0.1427,-0.1427,-0.1427,-0.144,-0.1474,-0.1474,-0.1454,-0.1445,0,0,0,0,0,0,0,0,0,0,-0.1419,-0.1416,-0.1427,-0.1427,-0.144,-0.1474,-0.1474,-0.1445,-0.1445,-0.142,0,-0.1427,0,-0.1438,-0.1451,-0.1451,0,0,0,-0.1441,-0.1416,-0.1426,-0.1427,-0.144,-0.1474,-0.1459,-0.1446,-0.1446,-0.142,-0.1427,-0.1427,-0.1437,-0.1451,-0.145,-0.1375,-0.1374,0,0,-0.1439,-0.143,-0.1426,-0.1426,-0.1449,-0.1457,-0.146,-0.1446,-0.1445,-0.1427,-0.1427,-0.1437,-0.145,-0.145,-0.1375,-0.1375,0,0,0,-0.1433,-0.1429,-0.1441,-0.1426,-0.1436,-0.1458,-0.1461,-0.1445,-0.145,-0.1427,-0.1437,-0.145,-0.145,-0.1376,-0.1375,-0.1385,0,0,0,-0.1431,-0.1425,-0.144,-0.1435,-0.1437,-0.145,-0.146,-0.1451,-0.145,-0.1437,-0.145,-0.1449,-0.1376,-0.1375,-0.1385,-0.1386,0,0,0,-0.1425,-0.1425,-0.143,-0.1434,-0.1449,-0.145,-0.1455,-0.1451,-0.1455,-0.1451,-0.1449,-0.1377,-0.1376,-0.1386,-0.1387,-0.1337,0,0,0,-0.1414,-0.1408,-0.1429,-0.1423,-0.1449,-0.145,-0.1455,-0.147,-0.147,-0.145,-0.1376,-0.1375,-0.1387,-0.1388,-0.1338,-0.1191,-0.1173,0,0,-0.1396,-0.1405,-0.1401,-0.1421,-0.1419,-0.1446,-0.1429,-0.1444,-0.1435,-0.1378,-0.1377,-0.1385,-0.1387,-0.1337,-0.1122,-0.1105,0,0,0,-0.1388,-0.138,-0.1386,-0.139,-0.1407,-0.1413,-0.1425,-0.1421,-0.1399,-0.1428,-0.1358,-0.1358,-0.1326,-0.124,-0.1226,-0.1369,-0.1369,-0.137,-0.137,-0.1327,-0.1344,-0.1338,-0.1355,-0.1363,-0.1386,-0.1386,-0.1371,-0.1373,-0.1362,-0.1346,-0.1287,-0.1194,-0.1182,-0.1324,-0.1324,-0.1324,-0.1324,-0.1324,-0.128,-0.1271,-0.1301,-0.1304,-0.1327,-0.1321,-0.1328,-0.1341,-0.1299,-0.1318,-0.1287,-0.1229,-0.1168,-0.1324,-0.1324,-0.1324,-0.1324,-0.1324,-0.1324,-0.1225,-0.1227,-0.1242,-0.1256,-0.1271,-0.1298,-0.128,-0.1303,-0.1291,-0.1278,-0.1147,-0.1145,-0.1291,-0.1252,-0.1252,-0.1252,-0.1252,-0.1251,-0.1251,-0.1165,-0.1182,-0.1182,-0.1211,-0.1222,-0.124,-0.1258,-0.1228,-0.1158,-0.1128,-0.1126,-0.1262,-0.1264,-0.1285,-0.1248,-0.1248,-0.1249,-0.1249,-0.1249,-0.109,-0.1117,-0.11,-0.1111,-0.1133,-0.1085,-0.1133,-0.1017,-0.0991,-0.0911,-0.1021,-0.1028,-0.1002,-0.101,-0.1023,-0.0921,-0.0921,-0.0921,-0.0921,-0.1043,-0.1055,-0.1019,-0.1006,-0.0997,-0.1001,-0.0837,-0.075,-0.0739,-0.0722,-0.0732,-0.0725,-0.0741,-0.0702,-0.0718,-0.0725,-0.0546,-0.0545,-0.0545,-0.1001,-0.0991,-0.0937,-0.0929,-0.092,-0.0865,-0.0665,-0.0462,-0.0412,-0.0536,-0.0729,-0.0883,-0.0898,-0.0915,-0.0876,-0.0893,-0.0914,0,0]},{"header":{"parameterUnit":"m.s-1","parameterCategory":2,"la1":30.2992,"la2":30.254,"lo1":-89.0895,"lo2":-89.0443,"dy":0.0025,"dx":0.0025,"nx":19,"ny":19,"refTime":"2026-03-10T03:00:00:Z","depth":"2","parameterNumber":3,"parameterNumberName":"V-component_of_CURRENTS"},"data":[0,0,0,-0.0478,-0.0477,-0.0453,-0.0453,-0.0366,-0.0365,0,0,0,0,0,0,0,0,0,0,0,-0.0481,-0.0481,-0.0478,-0.0477,-0.0453,-0.0453,-0.0366,-0.0365,0,0,0,0,0,0,0,0,0,0,0,-0.0481,-0.0481,-0.0481,-0.0477,-0.0453,-0.0453,-0.0366,-0.0396,0,0,0,0,0,0,0,0,0,0,-0.0425,-0.0444,-0.0481,-0.0481,-0.0477,-0.0453,-0.0453,-0.0398,-0.0394,-0.0364,0,-0.0364,0,-0.0367,-0.0359,-0.0358,0,0,0,-0.0467,-0.0447,-0.0439,-0.0481,-0.0477,-0.0453,-0.0461,-0.0396,-0.0392,-0.0358,-0.0363,-0.036,-0.0366,-0.0358,-0.0358,-0.0285,-0.0285,0,0,-0.0469,-0.0474,-0.0443,-0.0437,-0.0475,-0.0462,-0.0461,-0.0394,-0.039,-0.0363,-0.0358,-0.0365,-0.0358,-0.0357,-0.0285,-0.0285,0,0,0,-0.0479,-0.0475,-0.047,-0.044,-0.0443,-0.0462,-0.046,-0.0393,-0.0391,-0.0358,-0.0364,-0.0357,-0.0356,-0.0285,-0.0285,-0.0312,0,0,0,-0.048,-0.0482,-0.0471,-0.0473,-0.0445,-0.0427,-0.046,-0.0396,-0.0389,-0.0364,-0.0357,-0.0355,-0.0285,-0.0285,-0.0311,-0.0325,0,0,0,-0.0481,-0.0482,-0.0481,-0.0474,-0.0469,-0.0428,-0.0423,-0.0394,-0.0392,-0.0358,-0.0355,-0.0285,-0.0285,-0.0311,-0.0324,-0.0277,0,0,0,-0.0485,-0.0491,-0.0481,-0.0488,-0.0469,-0.0455,-0.0423,-0.0404,-0.0378,-0.0356,-0.0285,-0.0285,-0.0311,-0.0323,-0.0278,-0.025,-0.0246,0,0,-0.0496,-0.0492,-0.0497,-0.0488,-0.0486,-0.0458,-0.044,-0.0393,-0.0362,-0.0302,-0.03,-0.0312,-0.0324,-0.0277,-0.0236,-0.0233,0,0,0,-0.0504,-0.0507,-0.0504,-0.0501,-0.0485,-0.046,-0.042,-0.0392,-0.0342,-0.0347,-0.0299,-0.0306,-0.0275,-0.0259,-0.0256,-0.0284,-0.0284,-0.0284,-0.0284,-0.0523,-0.0519,-0.0525,-0.0514,-0.0498,-0.0456,-0.0426,-0.0376,-0.0348,-0.0328,-0.0318,-0.0291,-0.0275,-0.0272,-0.0306,-0.0306,-0.0306,-0.0307,-0.0307,-0.0552,-0.0563,-0.0545,-0.0552,-0.0517,-0.0494,-0.0422,-0.0394,-0.0325,-0.0324,-0.0292,-0.0278,-0.0271,-0.0308,-0.0308,-0.0308,-0.0308,-0.0307,-0.0307,-0.0579,-0.0584,-0.0586,-0.0589,-0.0566,-0.052,-0.0469,-0.0415,-0.0347,-0.0324,-0.026,-0.0259,-0.0293,-0.0293,-0.0293,-0.0293,-0.0293,-0.0293,-0.0293,-0.061,-0.0611,-0.0633,-0.0627,-0.0623,-0.0585,-0.0494,-0.043,-0.0325,-0.0279,-0.0278,-0.0285,-0.0285,-0.0291,-0.029,-0.0291,-0.0291,-0.0291,-0.0291,-0.0651,-0.0655,-0.0686,-0.0693,-0.067,-0.0614,-0.0536,-0.0376,-0.0293,-0.0229,-0.0232,-0.0234,-0.0212,-0.0214,-0.0216,-0.0196,-0.0196,-0.0196,-0.0196,-0.0682,-0.0686,-0.0726,-0.0735,-0.0709,-0.0627,-0.0493,-0.0355,-0.0232,-0.0196,-0.0196,-0.0213,-0.0216,-0.0195,-0.0198,-0.02,-0.0176,-0.0176,-0.0176,-0.0713,-0.0721,-0.0749,-0.0755,-0.0726,-0.0615,-0.048,-0.0308,-0.0174,-0.0178,-0.0223,-0.0189,-0.0215,-0.022,-0.0188,-0.0191,-0.0196,0,0]}],[{"header":{"parameterUnit":"m.s-1","parameterCategory":2,"la1":30.2992,"la2":30.254,"lo1":-89.0895,"lo2":-89.0443,"dy":0.0025,"dx":0.0025,"nx":19,"ny":19,"refTime":"2026-03-10T03:00:00:Z","depth":"4","parameterNumber":2,"parameterNumberName":"U-component_of_CURRENTS"},"data":[0,0,0,-0.0825,-0.0826,-0.0883,-0.0883,-0.0915,-0.0915,0,0,0,0,0,0,0,0,0,0,0,-0.0808,-0.0808,-0.0825,-0.0826,-0.0883,-0.0883,-0.0915,-0.0915,0,0,0,0,0,0,0,0,0,0,0,-0.0808,-0.0808,-0.0809,-0.0827,-0.0883,-0.0883,-0.0915,-0.0882,0,0,0,0,0,0,0,0,0,0,-0.0832,-0.0827,-0.0808,-0.0809,-0.0827,-0.0883,-0.0883,-0.0881,-0.0884,-0.0878,0,-0.0891,0,-0.0902,-0.0916,-0.0916,0,0,0,-0.0827,-0.0825,-0.0835,-0.0809,-0.0827,-0.0883,-0.0858,-0.0883,-0.0887,-0.0882,-0.0892,-0.0893,-0.0902,-0.0916,-0.0916,-0.0946,-0.0946,0,0,-0.0824,-0.0822,-0.0832,-0.0837,-0.0847,-0.0856,-0.0859,-0.0886,-0.0894,-0.0892,-0.0894,-0.0903,-0.0917,-0.0917,-0.0946,-0.0946,0,0,0,-0.0814,-0.082,-0.083,-0.0835,-0.0848,-0.0857,-0.0861,-0.0893,-0.0895,-0.0894,-0.0903,-0.0917,-0.0917,-0.0946,-0.0946,-0.0951,0,0,0,-0.0813,-0.0814,-0.0828,-0.0829,-0.0848,-0.0878,-0.0868,-0.0893,-0.0897,-0.0903,-0.0917,-0.0917,-0.0945,-0.0946,-0.095,-0.0937,0,0,0,-0.0804,-0.0814,-0.082,-0.0828,-0.0852,-0.0878,-0.0882,-0.0895,-0.0902,-0.0916,-0.0917,-0.0945,-0.0946,-0.095,-0.0937,-0.0888,0,0,0,-0.0799,-0.0815,-0.0821,-0.0841,-0.0851,-0.0873,-0.0882,-0.0906,-0.0919,-0.0917,-0.0945,-0.0946,-0.095,-0.0937,-0.0889,-0.0758,0,0,0,-0.0812,-0.0816,-0.0827,-0.0833,-0.0849,-0.0865,-0.089,-0.0914,-0.0923,-0.0933,-0.0934,-0.0951,-0.0937,-0.0888,-0.0787,0,0,0,0,-0.0826,-0.0828,-0.0836,-0.085,-0.0867,-0.0885,-0.091,-0.0919,-0.0944,-0.0934,-0.0958,-0.0949,-0.0918,-0.0845,-0.0948,-0.0948,-0.0948,-0.0948,-0.0948,-0.0822,-0.0831,-0.0841,-0.0854,-0.0872,-0.0902,-0.0913,-0.0931,-0.0947,-0.0962,-0.096,-0.0935,-0.0862,-0.0976,-0.0976,-0.0976,-0.0976,-0.0976,-0.0976,-0.081,-0.08,-0.0831,-0.0844,-0.0871,-0.0896,-0.0923,-0.094,-0.0938,-0.0968,-0.0937,-0.0866,-0.0977,-0.0977,-0.0976,-0.0976,-0.0976,-0.0976,-0.0976,-0.077,-0.0767,-0.0793,-0.0816,-0.0849,-0.0891,-0.0876,-0.0917,-0.093,-0.0918,-0.0811,-0.0918,-0.0907,-0.09,-0.09,-0.09,-0.0899,-0.0899,-0.0899,-0.0709,-0.0734,-0.0739,-0.078,-0.0793,-0.0815,-0.0847,-0.0822,-0.0849,-0.0786,-0.091,-0.0908,-0.0911,-0.0902,-0.0895,-0.0896,-0.0896,-0.0897,-0.0897,-0.063,-0.0661,-0.065,-0.0662,-0.0682,-0.0686,-0.0741,-0.0681,-0.0633,-0.0582,-0.0697,-0.0708,-0.068,-0.0687,-0.0669,-0.0593,-0.0592,-0.059,0,-0.0574,-0.059,-0.0559,-0.0543,-0.0524,-0.0588,-0.0498,-0.0495,-0.0516,-0.0506,-0.0626,-0.0759,-0.0765,-0.0738,-0.0742,-0.0722,0,0,0,-0.0519,-0.0515,-0.0466,-0.0466,-0.044,-0.0424,-0.0467,-0.0427,-0.054,-0.0449,-0.0545,-0.0557,-0.0749,-0.0884,-0.0865,-0.0868,-0.0851,0,0]},{"header":{"parameterUnit":"m.s-1","parameterCategory":2,"la1":30.2992,"la2":30.254,"lo1":-89.0895,"lo2":-89.0443,"dy":0.0025,"dx":0.0025,"nx":19,"ny":19,"refTime":"2026-03-10T03:00:00:Z","depth":"4","parameterNumber":3,"parameterNumberName":"V-component_of_CURRENTS"},"data":[0,0,0,-0.0399,-0.04,-0.0422,-0.0422,-0.0395,-0.0394,0,0,0,0,0,0,0,0,0,0,0,-0.039,-0.039,-0.0399,-0.04,-0.0422,-0.0422,-0.0395,-0.0394,0,0,0,0,0,0,0,0,0,0,0,-0.039,-0.039,-0.039,-0.04,-0.0422,-0.0422,-0.0395,-0.0391,0,0,0,0,0,0,0,0,0,0,-0.0376,-0.038,-0.039,-0.039,-0.04,-0.0422,-0.0422,-0.0391,-0.0391,-0.037,0,-0.0378,0,-0.0387,-0.0392,-0.0392,0,0,0,-0.0395,-0.038,-0.0384,-0.039,-0.0401,-0.0422,-0.0411,-0.0392,-0.0391,-0.037,-0.0378,-0.0377,-0.0387,-0.0392,-0.0391,-0.0348,-0.0348,0,0,-0.0394,-0.0393,-0.0385,-0.0384,-0.0411,-0.041,-0.0412,-0.0392,-0.0393,-0.0378,-0.0377,-0.0386,-0.0391,-0.0391,-0.0348,-0.0348,0,0,0,-0.0394,-0.0392,-0.0398,-0.0385,-0.0394,-0.0411,-0.0413,-0.0394,-0.0396,-0.0377,-0.0386,-0.0391,-0.0391,-0.0348,-0.0348,-0.0378,0,0,0,-0.0393,-0.0393,-0.0398,-0.0397,-0.0395,-0.0403,-0.0415,-0.0397,-0.0396,-0.0386,-0.0391,-0.039,-0.0349,-0.0348,-0.0378,-0.0401,0,0,0,-0.0388,-0.0392,-0.0396,-0.0397,-0.0409,-0.0404,-0.0405,-0.0397,-0.0401,-0.0392,-0.039,-0.0349,-0.0348,-0.0378,-0.04,-0.0401,0,0,0,-0.0384,-0.0396,-0.0396,-0.0412,-0.0409,-0.0421,-0.0405,-0.0414,-0.0409,-0.0391,-0.0349,-0.0348,-0.0377,-0.0399,-0.04,-0.037,0,0,0,-0.0396,-0.0397,-0.0406,-0.0407,-0.0425,-0.0417,-0.0422,-0.0412,-0.0391,-0.0351,-0.035,-0.0378,-0.04,-0.04,-0.0345,0,0,0,0,-0.0408,-0.0416,-0.0421,-0.0433,-0.0437,-0.0437,-0.0427,-0.0413,-0.0388,-0.0387,-0.0361,-0.0373,-0.0373,-0.0352,-0.0346,-0.0346,-0.0346,-0.0346,-0.0346,-0.0423,-0.0428,-0.0447,-0.0452,-0.0455,-0.0448,-0.0442,-0.0415,-0.0394,-0.0384,-0.0385,-0.039,-0.0368,-0.0364,-0.0364,-0.0365,-0.0365,-0.0365,-0.0365,-0.0449,-0.0464,-0.0467,-0.0489,-0.0483,-0.0483,-0.0451,-0.0437,-0.0411,-0.0393,-0.039,-0.037,-0.0367,-0.0367,-0.0366,-0.0366,-0.0366,-0.0366,-0.0366,-0.0465,-0.0473,-0.0491,-0.0519,-0.0528,-0.0514,-0.0507,-0.048,-0.0443,-0.0442,-0.0404,-0.0407,-0.0419,-0.0435,-0.0435,-0.0436,-0.0436,-0.0436,-0.0436,-0.0476,-0.0492,-0.0526,-0.0551,-0.0569,-0.0572,-0.0546,-0.0522,-0.0484,-0.0437,-0.045,-0.0414,-0.0412,-0.0422,-0.0437,-0.0437,-0.0437,-0.0437,-0.0437,-0.0493,-0.0509,-0.0554,-0.0583,-0.0616,-0.0607,-0.0592,-0.0518,-0.0493,-0.0452,-0.0424,-0.0424,-0.0411,-0.0408,-0.0418,-0.0433,-0.0433,-0.0433,0,-0.0505,-0.0516,-0.0578,-0.0619,-0.0634,-0.0624,-0.0566,-0.0527,-0.0472,-0.0461,-0.0503,-0.0475,-0.0473,-0.0462,-0.0459,-0.0473,0,0,0,-0.0519,-0.0536,-0.0578,-0.0622,-0.0638,-0.0573,-0.0544,-0.051,-0.0481,-0.0435,-0.0425,-0.0427,-0.0455,-0.0442,-0.0422,-0.0419,-0.0434,0,0]}]]